Florien, LA

11:02 PM CST on February 21, 2017 (GMT -0600)
Fort Polk

Weather History for KAQV - September, 2012

Change the Weather History Date:

Saturday, September 15, 2012

  Actual Average (KIER) Record (KIER)
Temperature  
Mean Temperature 78 °F -  
Max Temperature 87 °F 88 °F 102 °F (1954)
Min Temperature 69 °F 67 °F 50 °F (1945)
Cooling Degree Days 13    
Growing Degree Days 28 (Base 50)    
Moisture  
Dew Point 69 °F    
Average Humidity 87    
Maximum Humidity 100    
Minimum Humidity 46    
Precipitation  
Precipitation 0.19 in - - ()
Sea Level Pressure  
Sea Level Pressure 30.10 in    
Wind  
Wind Speed 1 mph (NE)    
Max Wind Speed 5 mph    
Max Gust Speed -    
Visibility 7 miles    
Events Rain , Thunderstorm    
Averages and records for this station are not official NWS values.
T = Trace of Precipitation, MM = Missing Value Source: NWS Daily Summary

Daily Weather History Graph

Daily Weather History Graph

Search for Another Location

Airport or City:

Trip Planner

Search our weather history database for the weather conditions in past years. The results will help you decide how hot, cold, wet, or windy it might be!

Date:

Astronomy

Sep. 15, 2012 Rise Set
Actual Time 6:57 AM CDT 7:18 PM CDT
Civil Twilight 6:33 AM CDT 7:42 PM CDT
Nautical Twilight 6:04 AM CDT 8:10 PM CDT
Astronomical Twilight 5:35 AM CDT 8:39 PM CDT
Moon 6:27 AM CDT (9/15) 6:52 PM CDT (9/15)
Length of Visible Light 13h 09m
Length of Day
12h 20m
Waning Crescent, 0% of the Moon is Illuminated
Sep 15
Waning Crescent
Sep 15
New
Sep 22
First Quarter
Sep 29
Full
Oct 8
Last Quarter

Hourly Weather History & Observations

Time (CDT) Temp. Heat Index Dew Point Humidity Pressure Visibility Wind Dir Wind Speed Gust Speed Precip Events Conditions
12:56 AM 73.0 °F - 69.1 °F 87% 30.13 in 10.0 mi Calm Calm - N/A   Mostly Cloudy
1:56 AM 72.0 °F - 70.0 °F 93% 30.13 in 9.0 mi Calm Calm - 0.00 in   Overcast
2:56 AM 71.1 °F - 69.1 °F 93% 30.11 in 9.0 mi Calm Calm - N/A   Clear
3:56 AM 71.1 °F - 69.1 °F 93% 30.10 in 9.0 mi North 3.5 mph - 0.01 in   Clear
4:56 AM 70.0 °F - 69.1 °F 97% 30.10 in 7.0 mi Calm Calm - N/A   Clear
5:44 AM 69.8 °F - 68.0 °F 94% 30.12 in 6.0 mi Calm Calm - N/A   Partly Cloudy
5:56 AM 70.0 °F - 68.0 °F 93% 30.12 in 6.0 mi Calm Calm - N/A   Partly Cloudy
6:44 AM 69.8 °F - 68.0 °F 94% 30.13 in 6.0 mi Calm Calm - N/A   Mostly Cloudy
6:56 AM 70.0 °F - 68.0 °F 93% 30.13 in 4.0 mi NNE 3.5 mph - N/A   Overcast
7:05 AM 69.8 °F - 69.8 °F 100% 30.14 in 2.0 mi Calm Calm - N/A   Overcast
7:12 AM 69.8 °F - 69.8 °F 100% 30.14 in 1.8 mi Calm Calm - N/A   Overcast
7:27 AM 69.8 °F - 69.8 °F 100% 30.14 in 0.8 mi Calm Calm - N/A   Overcast
7:38 AM 71.6 °F - 69.8 °F 94% 30.14 in 1.5 mi Calm Calm - N/A   Overcast
7:43 AM 71.6 °F - 69.8 °F 94% 30.14 in 3.0 mi Calm Calm - N/A   Mostly Cloudy
7:56 AM 72.0 °F - 70.0 °F 93% 30.13 in 7.0 mi Calm Calm - N/A   Scattered Clouds
8:56 AM 78.1 °F - 68.0 °F 71% 30.12 in 10.0 mi East 4.6 mph - N/A   Partly Cloudy
9:56 AM 79.0 °F - 66.9 °F 66% 30.13 in 10.0 mi South 3.5 mph - N/A   Overcast
10:56 AM 82.9 °F 85.4 °F 66.9 °F 58% 30.12 in 10.0 mi Variable 3.5 mph - N/A   Clear
11:56 AM 84.0 °F 85.8 °F 64.9 °F 53% 30.11 in 10.0 mi Calm Calm - N/A   Clear
12:56 PM 87.1 °F 88.3 °F 64.0 °F 46% 30.09 in 10.0 mi Variable 3.5 mph - N/A   Overcast
1:56 PM 75.9 °F - 73.0 °F 91% 30.09 in 4.0 mi ENE 4.6 mph - 0.13 in Rain Light Rain
2:56 PM 80.1 °F 83.6 °F 71.1 °F 74% 30.07 in 10.0 mi West 3.5 mph - 0.00 in Rain Light Rain
3:56 PM 75.9 °F - 72.0 °F 87% 30.07 in 7.0 mi Calm Calm - 0.01 in Rain Light Rain
4:48 PM 75.2 °F - 71.6 °F 89% 30.06 in 10.0 mi Calm Calm - 0.02 in Rain , Thunderstorm Light Rain
4:56 PM 75.9 °F - 72.0 °F 87% 30.06 in 10.0 mi Calm Calm - 0.02 in Rain Light Rain
5:56 PM 72.0 °F - 69.1 °F 91% 30.06 in 7.0 mi Variable 4.6 mph - 0.00 in Rain Light Rain
6:56 PM 72.0 °F - 69.1 °F 91% 30.04 in 7.0 mi Calm Calm - 0.02 in   Overcast
7:56 PM 73.0 °F - 70.0 °F 90% 30.04 in 6.0 mi Calm Calm - N/A   Overcast
8:56 PM 73.0 °F - 71.1 °F 93% 30.06 in 6.0 mi Calm Calm - N/A   Overcast
9:56 PM 72.0 °F - 70.0 °F 93% 30.07 in 5.0 mi Calm Calm - N/A   Overcast
10:56 PM 72.0 °F - 70.0 °F 93% 30.06 in 7.0 mi Calm Calm - N/A   Overcast
11:56 PM 72.0 °F - 70.0 °F 93% 30.06 in 6.0 mi Calm Calm - N/A   Overcast